[[{"header":{"parameterUnit":"m.s-1","parameterCategory":1,"la1":30.2991,"la2":30.254,"lo1":-89.0895,"lo2":-89.0444,"dy":0.0017,"dx":0.0017,"nx":28,"ny":28,"refTime":"2024-04-09T09:00:00:Z","depth":0,"parameterNumber":2,"parameterNumberName":"U-component_of_WINDS"},"data":[0,0,0,0,0,0,0,0,0,0,0,0,0,0,0,0,0,0,0,0,0,0,0,0,0,0,0,0,0,0,0,0,0,0,0,0,0,0,0,0,0,0,0,0,0,0,0,0,0,0,0,0,0,0,0,0,0,0,5.9206,5.9207,0,5.9315,5.9316,5.9317,5.9235,5.9231,5.9227,5.9224,5.9339,5.9346,5.9352,0,0,0,0,0,0,0,0,0,0,0,0,0,5.8927,5.8933,5.9206,5.9207,5.9208,5.9315,5.9316,5.9318,5.9235,5.9231,5.9227,5.9222,5.9337,5.9345,5.9353,0,0,0,0,0,0,0,0,0,0,0,0,0,5.9044,5.8935,5.9205,5.918,5.9179,5.9314,5.9316,5.9318,5.9236,5.9231,5.9225,5.922,5.9335,5.9344,5.9354,5.9521,0,0,5.9383,5.9387,0,0,0,0,0,0,0,0,5.9037,5.9054,5.9182,5.9182,5.9181,5.9255,5.926,5.9386,5.9238,5.9215,5.9224,5.9218,5.9316,5.9327,5.9359,5.9527,5.9532,5.9384,5.939,5.9394,5.9397,0,0,0,0,0,0,0,5.9029,5.9049,5.9249,5.9184,5.9183,5.9164,5.9174,5.9284,5.9294,5.9216,5.921,5.9224,5.9315,5.935,5.9362,5.9533,5.9384,5.9392,5.9398,5.9402,5.9841,5.9846,0,0,0,0,0,0,5.9023,5.9043,5.9245,5.9252,5.9094,5.9173,5.9185,5.9237,5.9293,5.9296,5.9229,5.922,5.9336,5.935,5.9365,5.9562,5.9394,5.9403,5.9409,5.9835,5.9842,5.9848,0,0,0,0,0,0,5.9018,5.9042,5.9241,5.9146,5.917,5.9183,5.9243,5.9242,5.9277,5.9302,5.9304,5.9263,5.9333,5.9352,5.9482,5.9565,5.9407,5.9416,5.9828,5.9837,5.9845,5.996,0,0,0,0,0,0,5.901,5.9041,5.9104,5.9148,5.9175,5.9356,5.9248,5.9248,5.9294,5.9283,5.9335,5.9338,5.933,5.9468,5.9492,5.9576,5.9424,5.982,5.9832,5.9842,5.9949,5.9971,5.9991,0,0,0,0,0,5.9,5.9133,5.9108,5.9133,5.9255,5.9361,5.9376,5.9363,5.9301,5.9365,5.938,5.9337,5.9553,5.9482,5.9508,5.9596,5.9815,5.9829,5.9842,5.9939,5.9967,5.9991,0,0,0,0,0,0,5.91,5.9139,5.9111,5.9262,5.9308,5.9346,5.9426,5.9393,5.9459,5.9447,5.9429,5.9441,5.9577,5.96,5.9521,5.976,5.9674,5.9693,5.974,5.9766,5.9787,5.9778,5.9432,0,0,0,0,0,5.914,5.9222,5.9252,5.9382,5.9407,5.9413,5.9459,5.9444,5.9492,5.9512,5.9537,5.9587,5.9665,5.9717,5.9792,5.9952,5.9961,6.0026,6.0047,6.0064,6.008,6.0164,6.0192,5.9892,5.9892,5.9891,0,0,5.9223,5.9254,5.9307,5.9403,5.9437,5.9523,5.943,5.9525,5.9588,5.9527,5.965,5.9671,5.9725,5.987,5.9936,5.9893,6.0165,6.0081,6.0095,6.0101,6.0181,6.0209,6.0234,5.9901,5.9899,5.9898,0,0,5.9416,5.9449,5.956,5.9596,5.9648,5.9651,5.9678,5.9721,5.9732,5.9855,5.981,5.9886,6.0022,6.0061,6.0099,6.0307,6.0268,6.0332,6.0441,6.0524,6.0547,6.0568,6.0639,6.0666,6.0348,6.0348,6.0348,0,5.9512,5.9639,5.9621,5.9719,5.9762,5.9709,5.982,5.9856,5.9931,5.9962,5.9914,6.0082,6.0115,6.0267,6.0318,6.0351,6.038,6.0324,6.0545,6.0566,6.0585,6.0653,6.068,6.0355,6.0355,6.0354,6.0353,0,5.9753,5.9841,5.9925,5.9996,6.0048,6.0153,6.0151,6.0207,6.0188,6.0196,6.0322,6.0359,6.0438,6.0474,6.0458,6.0624,6.0596,6.0547,6.046,6.0621,6.0684,6.071,6.0366,6.0363,6.0361,6.0359,0,0,6.0012,6.0071,6.0102,6.0132,6.0186,6.0254,6.0356,6.0432,6.0479,6.0533,6.0616,6.0733,6.0687,6.073,6.0718,6.079,6.0949,6.0732,6.0733,6.0768,6.1132,6.1166,6.1196,6.0924,6.0929,6.0933,6.1126,0,6.0206,6.0381,6.0368,6.0533,6.0613,6.0564,6.0652,6.0695,6.0706,6.0776,6.0788,6.0869,6.0804,6.0829,6.0899,6.0914,6.1021,6.0901,6.1001,6.1005,6.0986,6.123,6.1266,6.1446,6.1151,6.1155,6.1158,0,6.0455,6.0514,6.0687,6.0727,6.076,6.084,6.0907,6.0975,6.1022,6.1024,6.1072,6.1047,6.1149,6.1062,6.1202,6.112,6.1161,6.1175,6.1182,6.1188,6.1089,6.124,6.1504,6.153,6.1198,6.1194,6.1192,0,6.0622,6.0747,6.0865,6.0893,6.0943,6.1,6.1024,6.1065,6.1111,6.1171,6.12,6.1272,6.1311,6.1367,6.1362,6.1299,6.1504,6.1416,6.1508,6.1508,6.1551,6.1548,6.1822,6.1582,6.1582,6.1581,6.1581,0,6.0838,6.0945,6.094,6.1013,6.1131,6.1116,6.1233,6.1251,6.1288,6.1363,6.1327,6.1398,6.1389,6.1461,6.1458,6.1573,6.1592,6.1596,6.1593,6.1598,6.1597,6.1622,6.1608,6.1589,6.1587,6.1586,6.1584,0,6.1044,6.1046,6.1171,6.1207,6.1219,6.1304,6.1335,6.1404,6.1411,6.1507,6.1529,6.154,6.1623,6.1624,6.172,6.1718,6.1857,6.1842,6.184,6.1836,6.1926,6.1917,6.2224,6.2262,6.2001,6.2003,6.2006,0,6.118,6.1261,6.1305,6.1352,6.1379,6.1456,6.1501,6.1489,6.1539,6.1598,6.1659,6.1738,6.18,6.1935,6.1952,6.2025,6.2009,6.2112,6.202,6.202,6.2007,6.2001,6.2008,6.2129,6.2132,6.2134,6.2136,0,6.1421,6.1417,6.1484,6.1551,6.1606,6.1659,6.1707,6.1748,6.1742,6.1799,6.1882,6.193,6.2026,6.2105,6.2174,6.2199,6.2167,6.2165,6.219,6.2193,6.2187,6.2188,6.1886,6.2158,6.2156,6.2154,6.2153,6.2152,6.1594,6.1662,6.1703,6.1778,6.1813,6.1859,6.1924,6.1939,6.2007,6.2083,6.2073,6.2165,6.2209,6.2299,6.233,6.2402,6.2366,6.2402,6.2411,6.2419,6.2427,6.2179,6.2415,6.2415,6.2414,6.2413,6.2413,0,6.1829,6.1853,6.1922,6.199,6.2049,6.2013,6.2064,6.2116,6.2197,6.224,6.2301,6.2396,6.2472,6.2495,6.2568,6.2621,6.2607,6.264,6.2634,6.264,6.2457,6.2427,6.2649,6.2649,6.2649,6.2649,6.2649,6.2649,6.1958,6.2071,6.2072,6.2201,6.2224,6.2313,6.2345,6.2387,6.2421,6.2527,6.2589,6.2603,6.2638,6.2713,6.2781,6.2786,6.2813,6.2851,6.285,6.2677,6.2654,6.2631,6.2602,6.2858,6.2858,6.3027,6.3028,6.3029]},{"header":{"parameterUnit":"m.s-1","parameterCategory":1,"la1":30.2991,"la2":30.254,"lo1":-89.0895,"lo2":-89.0444,"dy":0.0017,"dx":0.0017,"nx":28,"ny":28,"refTime":"2024-04-09T09:00:00:Z","depth":0,"parameterNumber":3,"parameterNumberName":"V-component_of_WINDS"},"data":[0,0,0,0,0,0,0,0,0,0,0,0,0,0,0,0,0,0,0,0,0,0,0,0,0,0,0,0,0,0,0,0,0,0,0,0,0,0,0,0,0,0,0,0,0,0,0,0,0,0,0,0,0,0,0,0,0,0,3.8649,3.865,0,3.8733,3.8734,3.8735,3.8705,3.8703,3.8701,3.8699,3.8785,3.8789,3.8793,0,0,0,0,0,0,0,0,0,0,0,0,0,3.846,3.8464,3.8649,3.865,3.8651,3.8733,3.8734,3.8735,3.8705,3.8703,3.8701,3.8698,3.8784,3.8788,3.8793,0,0,0,0,0,0,0,0,0,0,0,0,0,3.8543,3.8465,3.8649,3.8646,3.8646,3.8733,3.8734,3.8735,3.8706,3.8703,3.87,3.8697,3.8782,3.8788,3.8794,3.8888,0,0,3.8812,3.8815,0,0,0,0,0,0,0,0,3.8539,3.855,3.8645,3.8646,3.8647,3.8706,3.8699,3.8787,3.8706,3.8683,3.8699,3.8696,3.8761,3.8768,3.879,3.8892,3.8895,3.8813,3.8817,3.8819,3.8821,0,0,0,0,0,0,0,3.8533,3.8546,3.8682,3.8647,3.8648,3.864,3.8648,3.8715,3.8737,3.8685,3.8683,3.8693,3.8761,3.8785,3.8792,3.8897,3.8813,3.8818,3.8822,3.8824,3.9077,3.908,0,0,0,0,0,0,3.8527,3.8542,3.8679,3.8685,3.8585,3.8645,3.8655,3.869,3.8736,3.874,3.8696,3.8692,3.8776,3.8785,3.8795,3.8907,3.8819,3.8825,3.8828,3.9074,3.9078,3.9081,0,0,0,0,0,0,3.8523,3.8539,3.8676,3.8613,3.8629,3.8652,3.8691,3.8693,3.8717,3.8744,3.8748,3.8716,3.8774,3.8787,3.8865,3.891,3.8828,3.8833,3.907,3.9075,3.9079,3.9132,0,0,0,0,0,0,3.8518,3.8538,3.8575,3.8614,3.8633,3.8745,3.8694,3.8696,3.8727,3.8723,3.8764,3.8769,3.8773,3.8856,3.8871,3.8916,3.8838,3.9066,3.9073,3.9078,3.9126,3.9138,3.9148,0,0,0,0,0,3.8511,3.8586,3.8577,3.8594,3.8679,3.8748,3.8759,3.8762,3.8731,3.8767,3.8785,3.8767,3.8902,3.8864,3.888,3.8929,3.9064,3.9071,3.9078,3.9122,3.9136,3.9147,0,0,0,0,0,0,3.8553,3.8592,3.8581,3.8672,3.8707,3.8742,3.8789,3.8777,3.8821,3.8815,3.8817,3.8827,3.8907,3.8925,3.8882,3.9021,3.8978,3.8989,3.9006,3.9019,3.903,3.9024,3.8843,0,0,0,0,0,3.8572,3.8625,3.8656,3.8733,3.8751,3.8767,3.8797,3.8796,3.8832,3.8847,3.887,3.8905,3.8955,3.8988,3.9036,3.9128,3.9136,3.917,3.918,3.9189,3.9198,3.9247,3.9262,3.9104,3.9104,3.9104,0,0,3.8613,3.8641,3.8675,3.8742,3.8769,3.8822,3.8779,3.8839,3.8878,3.8856,3.893,3.8948,3.8988,3.9073,3.9112,3.9091,3.9243,3.9198,3.9204,3.9209,3.9256,3.9271,3.9284,3.9109,3.9108,3.9107,0,0,3.8716,3.8743,3.8809,3.8836,3.8877,3.8887,3.8903,3.894,3.8951,3.9026,3.901,3.9057,3.9144,3.9172,3.9198,3.9309,3.9294,3.9324,3.938,3.9427,3.944,3.9451,3.949,3.9504,3.9333,3.9333,3.9333,0,3.8762,3.8843,3.8844,3.8905,3.8934,3.8915,3.8982,3.9008,3.9063,3.9083,3.9059,3.9166,3.9192,3.9283,3.9309,3.9331,3.9349,3.932,3.9438,3.9449,3.9459,3.9496,3.9511,3.9336,3.9336,3.9336,3.9335,0,3.8897,3.8953,3.9002,3.9054,3.9089,3.9152,3.9162,3.9197,3.9193,3.9205,3.9281,3.931,3.9363,3.9384,3.9381,3.9474,3.946,3.9437,3.9394,3.9478,3.9513,3.9527,3.9341,3.934,3.9339,3.9338,0,0,3.903,3.9081,3.9099,3.9122,3.9165,3.9208,3.9269,3.932,3.935,3.9387,3.9438,3.9511,3.949,3.9519,3.9518,3.956,3.9645,3.9532,3.9533,3.9551,3.9748,3.9765,3.9781,3.9635,3.9637,3.964,3.9744,0,3.9135,3.9244,3.9246,3.9345,3.9396,3.9378,3.9431,3.9462,3.9475,3.9519,3.9533,3.9584,3.9552,3.9569,3.961,3.9626,3.9684,3.9618,3.9682,3.9684,3.9672,3.98,3.9818,3.9916,3.9758,3.9761,3.9762,0,3.9274,3.9315,3.9419,3.9453,3.9474,3.9522,3.9569,3.9612,3.9646,3.9652,3.9684,3.9677,3.9738,3.9693,3.9777,3.9732,3.9758,3.9769,3.9773,3.9779,3.9728,3.9809,3.9947,3.9962,3.9784,3.9782,3.978,0,3.9359,3.9441,3.9513,3.9533,3.9575,3.9609,3.9628,3.966,3.969,3.973,3.9749,3.9796,3.9822,3.9857,3.9862,3.9829,3.9947,3.9902,3.9953,3.9952,3.9979,3.9977,4.0123,3.9995,3.9995,3.9995,3.9995,0,3.9477,3.9541,3.9552,3.9597,3.9667,3.9668,3.9738,3.9754,3.9782,3.9829,3.9816,3.986,3.9864,3.9909,3.9913,3.9981,3.9993,3.9999,3.9999,4.0,3.9999,4.0017,4.001,3.9999,3.9998,3.9997,3.9996,0,3.9585,3.9595,3.9672,3.9705,3.9714,3.9765,3.9792,3.9834,3.9844,3.9904,3.9917,3.9934,3.9986,3.9994,4.0055,4.0058,4.0139,4.0133,4.0128,4.0127,4.0177,4.0172,4.0339,4.0361,4.0219,4.0221,4.0222,0,3.9659,3.9708,3.9745,3.9776,3.9796,3.9845,3.9875,3.9877,3.9909,3.9952,3.9988,4.0039,4.0079,4.0163,4.018,4.0226,4.022,4.0276,4.0227,4.0226,4.022,4.0217,4.0222,4.0285,4.0287,4.0288,4.0289,0,3.979,3.9792,3.9837,3.9883,3.9919,3.9955,3.9989,4.0015,4.0021,4.0057,4.011,4.0142,4.0203,4.0253,4.0299,4.0317,4.0304,4.0304,4.0318,4.0319,4.0314,4.0317,4.0153,4.03,4.0299,4.0298,4.0298,4.0297,3.9884,3.9926,3.9958,4.0007,4.0033,4.0065,4.0105,4.012,4.0164,4.0215,4.0213,4.0271,4.0302,4.0362,4.0383,4.0428,4.041,4.043,4.0436,4.0441,4.0445,4.0307,4.0436,4.0436,4.0436,4.0435,4.0435,0,4.0013,4.0033,4.0078,4.0126,4.0164,4.0148,4.0184,4.0218,4.0269,4.0299,4.0339,4.0399,4.0447,4.0467,4.0513,4.0545,4.054,4.0557,4.0555,4.0559,4.0459,4.0442,4.056,4.056,4.056,4.056,4.056,4.056,4.0085,4.0155,4.0161,4.0242,4.0261,4.0318,4.034,4.0368,4.0393,4.046,4.05,4.0512,4.0538,4.0586,4.0629,4.0634,4.0651,4.0671,4.0673,4.0579,4.0566,4.0554,4.0538,4.0675,4.0675,4.0769,4.077,4.0771]}]]